Погода Алматы

Поиск расширенной информации на нашем сайте:

Полезная информация:

Новости сайта



02.01.2020
Опубликован Долгосрочный прогноз погоды по городам России и ближнего зарубежья на январь 2020 года.
Карты: Прогноз на январь и февраль 2020 года, Сравнение прогнозируемой аномалии приземной температуры воздуха на январь 2020 года по разным моделям.




Погода Алматы - сегодня

Время (UTC), дата Ветер
(°,м/с) 
Видим.   Явления Облачность Т
(°С)
Тd
(°С)
f(%) Тe
(°С)
Pmin
(гПа)
dP
(гПа)
Po
(мм)
O2
(г/м3)
Тmin Tmax R s Состояние
почвы
09 16.01.21 050 (СВ) 10 км    ясно 
+3.3 -8.5 42 +4  1017.5  -2  688  275           
12 16.01.21 010 (С) 20000 м    ясно 
-1.4 -8.2 60 -1  1019.8  0.5  688  279           
15 16.01.21 тихо ()   н/о    ясно 
-1.9 -7.6 65 -2  1020.8  0.7  689  280    +3.9       
18 16.01.21 тихо ()   н/о    ясно 
-2.3 -8.2 64 -2  1020.9  689  281    +3.9       
21 16.01.21 тихо ()   н/о    ясно 
-1.5 -8.8 57 -2  1020.6  689  280           
00 17.01.21 тихо () {02}  н/о    ясно 
+2.9 -9.2 41 +3  1019.5  0.5  689  276           
03 17.01.21 200 (Ю) 20000 м    ясно 
+5.3 -10.7 30 +5  1019.1  0.4  690  273        16  равномерный
сухой снег
100% 
06 17.01.21 тихо ()   20000 м    ясно 
+6.5 -6.5 39 +7  1018.5  690  272  -2.9         
09 17.01.21 тихо ()   4000 м  дым  3/0 верхняя 
[Ci fib]
+9.9 -3.5 39 +10  1015.9  -1.3  689  268           
12 17.01.21 тихо ()   10 км    3/0 верхняя 
[Ci fib]
+2.3 -5.8 55 +2  1018.2  -0.5  688  275           
15 17.01.21 тихо ()   н/о    ясно 
-1.5 -5.6 74 -2  1017.3  -2.1  687  279    +10.2       
18 17.01.21 тихо ()   н/о    ясно 
-2.5 -5.7 79 -3  1014.6  -2.7  685  279    +10.2       
21 17.01.21 тихо ()   н/о    8/0 верхняя 
[Ci fib]
-3.5 -6.1 82 -4  1014.1  -0.8  684  280           
00 18.01.21 тихо () {02}  н/о    ясно 
-4.3 -7.4 79 -4  1014.8  0.3  684  281           
03 18.01.21 тихо ()   20000 м    9/0 верхняя 
[Ci fib]
-4.9 -6.9 86 -5  1015.5  0.4  685  281  -5.4      15  равномерный
мокрый или
старый снег
100% 
06 18.01.21 тихо ()   20000 м    10/0 верхняя 
[Ci fib]
+1 -5.7 61 +1  1013.4  0.2  685  275  -5.4         
09 18.01.21 тихо ()   20000 м    10/0 верхняя 
[Ci fib]
+5.1 -5.9 45 +5  1011.4  -0.5  684  271           
12 18.01.21 тихо ()   20000 м    6/0 средняя 
[Ac trans]
+1.8 -4.6 62 +2  1013.8  1.1  685  275           
15 18.01.21 020 (С) н/о    8/0 средняя 
[Ac trans]
-0.4 -5 71 1014  -0.5  685  277    +6       
18 18.01.21 тихо ()   н/о    9/0 средняя, верхняя 
[Ac trans|Ci fib]
+0.7 -5.4 64 +1  1013.4  -0.2  685  276    +6       
21 18.01.21 тихо ()   н/о    6/0 верхняя 
[Ci fib]
-0.7 -6.7 64 -1  1014.3  0.3  685  277           
00 19.01.21 тихо () {02}  н/о    10/0 средняя 
[Ac As]
+1 -6.1 59 +1  1015.6  1.8  686  276           
03 19.01.21 тихо ()   20000 м    10/0 средняя 
[Ac und]
+4.3 -6.8 44 +4  1015.1  0.6  687  273        14  равномерный
мокрый или
старый снег
100% 
06 19.01.21 050 (СВ) 20000 м    10/0 средняя, верхняя 
[Ac und|Ci]
+9.5 -7.2 30 +11  1014.5  1.3  688  268  -0.7         
09 19.01.21 010 (С) 20000 м    10/0 кучево-дожд., средняя, верхняя 
[Cb cap|Ac As|Ci fib]
+9.6 -5.2 35 +11  1012.9  -1.5  687  268           
Время (UTC), дата Ветер
(°,м/с) 
Видим.   Явления Облачность Т
(°С)
Тd
(°С)
f(%) Тe
(°С)
Pmin
(гПа)
dP
(гПа)
Po
(мм)
O2
(г/м3)
Тmin Tmax R s Состояние
почвы

Для получения пояснительной информации подведите курсор к названию столбца.

ПОГОДА Алматы - архив

Всё, что Вы хотите узнать о погоде Алматы - удобно и подробно!

Выберите нужную дату (начиная с 1 января 2019* года) и нажмите кнопку "Найти".
Будут отображены архивные сводки погоды по пункту Алматы, начиная с указанной даты.


Отображать данные в формате CSV (для использования в таблицах Excel)


Внимание! Наш архив погоды предназначен исключительно для личного некоммерческого использования в познавательных целях. Если Вам необходимы официальные справки о состоянии погоды (для производственных, юридических, коммерческих и т.п. целей), обращайтесь в органы Росгидромета.

*Примечание: данная дата относится к архиву по метеостанциям СССР (Россия, СНГ, Балтия).
Архив по метеостанциям Зарубежной Европы и Азии (кроме Китая) хранится 10 дней, по другим регионам земного шара (Китай, Африка, Америка, Австралия, Океания) - 1 день.

Алматы - район местоположения метеостанции


Название, широта, долгота, высота метеостанции:
Алматы (город) 43.2°ш. 76.9°д. 851 м над ур. моря [Казахстан]

Дополнительная информация

В oтличие oт бoльшинства пoгoдных сайтoв мы публикуем пoдрoбную метеoинфoрмацию в детальнoм прoфессиoнальнoм фoрмате.

Характеристики температуры и влажнoсти вoздуха измеряются на высoте 2 м в тени вдали oт зданий и деревьев.
Скoрoсть ветра измеряется на высoте 10 м (на урoвне рoста челoвека скoрoсть ветра ниже в 1.5-2 раза). Если метеoстанция нахoдится в гoрoде или в лесу, тo скoрoсть ветра занижена на 2-4 м/с пo сравнению с oткрытым местoм. Скoрoсть ветра над акватoриями крупных рек и oзёр, а также на вершинах хoлмoв на 2-5 м/с выше, чем в oбычных услoвиях.
Атмoсфернoе давление в разных тoчках местнoсти мoжет значительнo oтличаться oт давления на метеoстанции, в зависимoсти oт услoвий рельефа (при пoдъёме на 10 м давление пoнижается примернo на 1 мм рт.ст.).